Regional Weather Roundup
Issued by NWS

Home | Current Version | Previous Version | Text Only | Print | Product List | Glossary Off
Versions: 1 2 3 4 5 6 7 8 9 10 11 12 13 14 15 16 17 18 19 20 21 22 23 24 25 26 27 28 29 30 31 32 33 34 35 36 37 38 39 40 41 42 43 44 45 46 47 48 49 50

000
ASUS43 KBIS 240702
RWRND

NORTH DAKOTA REGIONAL WEATHER ROUNDUP
NATIONAL WEATHER SERVICE BISMARCK ND
200 AM CDT WED AUG 24 2016

NOTE: "FAIR" INDICATES FEW OR NO CLOUDS BELOW 12,000 FEET WITH NO
SIGNIFICANT WEATHER AND/OR OBSTRUCTIONS TO VISIBILITY.


NDZ001>003-009>011-017-240800-
NORTHWEST NORTH DAKOTA

CITY           SKY/WX    TMP DP  RH WIND       PRES   REMARKS
WILLISTON      CLEAR     59  46  62 W14       29.93R
MINOT          CLEAR     63  48  58 SW10      29.85S
MINOT AFB      CLEAR     58  47  67 W12       29.84S
$$

NDZ018>021-031>035-040>046-240800-
SOUTHWEST NORTH DAKOTA

CITY           SKY/WX    TMP DP  RH WIND       PRES   REMARKS
BISMARCK       CLEAR     57  46  66 W6        29.93R
DICKINSON      CLEAR     55  44  66 W12       29.98S
GARRISON         N/A     59  48  67 W13       29.90S
HETTINGER ARPT CLEAR     50  42  74 W5        30.04R
$$

NDZ004>008-012>016-024-026-027-054-240800-
NORTHEAST NORTH DAKOTA

CITY           SKY/WX    TMP DP  RH WIND       PRES   REMARKS
GRAND FORKS    CLEAR     60  56  86 S5        29.80R
GRND FRKS AFB  CLEAR     60  56  85 W7        29.80S
DEVILS LAKE    CLEAR     63  51  65 W13       29.84R
$$

NDZ022-023-025-028>030-036>039-047>053-240800-
SOUTHEAST NORTH DAKOTA

CITY           SKY/WX    TMP DP  RH WIND       PRES   REMARKS
FARGO          CLOUDY    70  58  65 NW8       29.82R
JAMESTOWN      CLEAR     59  50  72 W3        29.87R
$$





USA.gov is the U.S. government's official web portal to all federal, state and local government web resources and services.